Bat Cave, NC

12:45 PM EST on February 14, 2016 (GMT -0500)
Asheville Regional

Weather History for KAVL - December, 2008

Change the Weather History Date:

Friday, December 26, 2008

  Actual Average Record
Temperature  
Mean Temperature 42 °F 38 °F  
Max Temperature 50 °F 48 °F 78 °F (1971)
Min Temperature 33 °F 28 °F 0 °F (1983)
Degree Days  
Heating Degree Days 23 27  
Month to date heating degree days 620 655  
Since 1 July heating degree days 1639 1522  
Cooling Degree Days 0 0  
Month to date cooling degree days 0 0  
Year to date cooling degree days 875 863  
Moisture  
Dew Point 38 °F    
Average Humidity 75    
Maximum Humidity 93    
Minimum Humidity 56    
Precipitation  
Precipitation T in 0.10 in 2.07 in (1973)
Month to date precipitation 4.48 3.07  
Year to date precipitation 35.37 45.05  
Snow  
Snow 0.00 in 0.10 in 2.00 in (1870)
Month to date snowfall T 0.6  
Since 1 July snowfall T 0.7  
Snow Depth -    
Sea Level Pressure  
Sea Level Pressure 30.41 in    
Wind  
Wind Speed 4 mph (South)    
Max Wind Speed 10 mph    
Max Gust Speed 12 mph    
Visibility 10 miles    
Events Rain    
T = Trace of Precipitation, MM = Missing Value Source: NWS Daily Summary

Daily Weather History Graph

Daily Weather History Graph

Search for Another Location

Airport or City:

Trip Planner

Search our weather history database for the weather conditions in past years. The results will help you decide how hot, cold, wet, or windy it might be!

Date:

Astronomy

Dec. 26, 2008 Rise Set
Actual Time 7:37 AM EST 5:24 PM EST
Civil Twilight 7:09 AM EST 5:52 PM EST
Nautical Twilight 6:37 AM EST 6:24 PM EST
Astronomical Twilight 6:06 AM EST 6:55 PM EST
Moon 7:08 AM EST (12/26) 4:37 PM EST (12/26)
Length of Visible Light 10h 43m
Length of Day
9h 46m
Waning Crescent, 1% of the Moon is Illuminated
Dec 26
Waning Crescent
Dec 27
New
Jan 4
First Quarter
Jan 10
Full
Jan 17
Last Quarter

Hourly Weather History & Observations

Time (EST) Temp. Windchill Dew Point Humidity Pressure Visibility Wind Dir Wind Speed Gust Speed Precip Events Conditions
12:54 AM 34.0 °F - 30.0 °F 85% 30.39 in 10.0 mi Calm Calm - N/A   Clear
1:35 AM 35.6 °F - 30.2 °F 81% 30.39 in 10.0 mi Calm Calm - N/A   Mostly Cloudy
1:54 AM 36.0 °F - 30.9 °F 82% 30.39 in 10.0 mi Calm Calm - N/A   Overcast
2:54 AM 37.0 °F - 33.1 °F 86% 30.39 in 10.0 mi Calm Calm - N/A   Overcast
3:54 AM 37.9 °F 35.5 °F 33.1 °F 83% 30.39 in 10.0 mi SSE 3.5 mph - N/A   Overcast
4:11 AM 39.2 °F - 33.8 °F 81% 30.40 in 10.0 mi Calm Calm - N/A   Overcast
4:54 AM 39.9 °F - 35.1 °F 83% 30.40 in 10.0 mi Calm Calm - N/A   Overcast
5:02 AM 41.0 °F - 35.6 °F 81% 30.41 in 10.0 mi Calm Calm - N/A   Overcast
5:12 AM 41.0 °F - 35.6 °F 81% 30.40 in 10.0 mi Calm Calm - N/A   Overcast
5:54 AM 41.0 °F - 35.1 °F 79% 30.42 in 10.0 mi Calm Calm - N/A   Overcast
6:54 AM 42.1 °F - 36.0 °F 79% 30.42 in 10.0 mi Calm Calm - N/A   Overcast
7:54 AM 44.1 °F 42.5 °F 39.0 °F 82% 30.44 in 10.0 mi SSW 3.5 mph - N/A   Overcast
8:54 AM 44.1 °F 40.8 °F 39.0 °F 82% 30.45 in 10.0 mi South 5.8 mph - N/A   Overcast
9:54 AM 46.0 °F 43.1 °F 37.9 °F 73% 30.46 in 10.0 mi South 5.8 mph - N/A   Overcast
10:54 AM 46.9 °F - 34.0 °F 61% 30.47 in 10.0 mi Calm Calm - N/A   Overcast
11:54 AM 48.0 °F - 34.0 °F 58% 30.45 in 10.0 mi South 6.9 mph - N/A   Overcast
12:54 PM 48.9 °F - 35.1 °F 59% 30.43 in 10.0 mi SE 3.5 mph - N/A   Overcast
1:54 PM 50.0 °F - 36.0 °F 59% 30.41 in 10.0 mi Calm Calm - N/A   Overcast
2:51 PM 50.0 °F - 39.2 °F 66% 30.39 in 10.0 mi South 8.1 mph - N/A   Overcast
2:54 PM 50.0 °F - 39.0 °F 66% 30.40 in 10.0 mi South 6.9 mph - N/A   Overcast
3:32 PM 50.0 °F - 39.2 °F 66% 30.39 in 10.0 mi South 5.8 mph - N/A   Overcast
3:52 PM 50.0 °F - 39.2 °F 66% 30.39 in 10.0 mi South 5.8 mph - N/A   Overcast
3:54 PM 50.0 °F - 39.0 °F 66% 30.40 in 10.0 mi South 4.6 mph - N/A   Overcast
4:33 PM 48.2 °F - 39.2 °F 71% 30.39 in 10.0 mi South 5.8 mph - N/A   Overcast
4:54 PM 48.9 °F - 39.9 °F 71% 30.39 in 10.0 mi South 4.6 mph - N/A   Overcast
5:54 PM 48.0 °F - 42.1 °F 80% 30.39 in 10.0 mi South 4.6 mph - N/A   Overcast
6:54 PM 48.9 °F - 42.1 °F 77% 30.39 in 10.0 mi South 5.8 mph - N/A   Overcast
7:28 PM 48.2 °F - 41.0 °F 76% 30.40 in 10.0 mi South 6.9 mph - N/A   Overcast
7:47 PM 46.4 °F 43.5 °F 41.0 °F 81% 30.41 in 10.0 mi South 5.8 mph - N/A   Overcast
7:54 PM 46.9 °F - 39.9 °F 77% 30.41 in 10.0 mi South 6.9 mph - N/A   Overcast
8:44 PM 46.4 °F 42.9 °F 41.0 °F 81% 30.41 in 10.0 mi SSE 6.9 mph - N/A   Overcast
8:54 PM 46.0 °F 43.1 °F 42.1 °F 86% 30.42 in 7.0 mi SSE 5.8 mph - 0.00 in Rain Light Rain
9:54 PM 46.0 °F 41.9 °F 42.1 °F 86% 30.41 in 10.0 mi SSE 8.1 mph - 0.00 in   Overcast
10:54 PM 45.0 °F 41.2 °F 42.1 °F 90% 30.41 in 10.0 mi South 6.9 mph - N/A   Overcast
11:54 PM 45.0 °F 40.6 °F 41.0 °F 86% 30.40 in 9.0 mi SSE 8.1 mph - N/A   Overcast